Preview of NWS' New Version of Forecast
This preview is not operational and should not be used for support decisions.
Latest weather observations around

INDEPENDENCE (KIDP)

Using English Units (Switch to International System of Units)
Date/ Time (CST) Wind (mph) Vis. (mi) Weather Sky Cond. Temp (°F) Rel. Humidity Wind Chill (°F) Heat Index (°F) Pressure Precip. (in)
Air Dwpt 6 hour Altimeter (inHg) Sea level (inHg) 1 hr 3 hr 6 hr
Max Min
Jan 16 12:55 SE 7 10 Cloudy OVC032 48 42     81% 44   30.1        
Jan 16 12:35 SE 7 10 Cloudy OVC032 47 42     81% 44   30.11        
Jan 16 12:15 SE 7 10 Cloudy OVC032 47 42     83% 43   30.13        
Jan 16 11:55 SSE 8 10 Cloudy OVC032 46 42     85% 42   30.14        
Jan 16 11:35 SSE 7 10 Cloudy OVC030 45 41     84% 42   30.16        
Jan 16 11:15 SSE 7 10 Cloudy OVC030 44 40     85% 41   30.17        
Jan 16 10:55 SE 8 10 Cloudy OVC030 44 40     86% 39   30.17        
Jan 16 10:30 SSE 7 10 Cloudy OVC030 43 40     87% 39   30.18        
Jan 16 10:15 SSE 7 10 Cloudy OVC030 43 39     88% 39   30.18        
Jan 16 09:50 SE 8 10 Cloudy OVC030 42 39     89% 37   30.16        
Jan 16 09:35 SE 7 10 Cloudy OVC030 42 39     90% 37   30.16        
Jan 16 09:15 SE 6 10 Cloudy OVC028 41 39     91% 38   30.17        
Jan 16 08:55 ESE 6 10 Cloudy OVC028 41 39     91% 37   30.17        
Jan 16 08:35 ESE 5 10 Cloudy BKN026 OVC030 41 39     92% 38   30.18        
Jan 16 08:15 ESE 5 10 Cloudy OVC026 41 39     92% 38   30.18        
Jan 16 07:55 SE 3 10 Cloudy OVC028 41 38     91% 39   30.18        
Jan 16 07:35 SSE 3 10 Cloudy OVC028 41 38     91% 39   30.18        
Jan 16 07:15 S 5 10 Cloudy OVC028 40 38     93% 37   30.18        
Jan 16 06:55 S 5 10 Cloudy OVC028 40 38     94% 37   30.18        
Jan 16 06:30 S 6 10 Cloudy OVC028 40 38     93% 36   30.18        
Jan 16 06:15 S 7 10 Cloudy OVC028 40 38     93% 36   30.17        
Jan 16 05:55 S 8 10 Cloudy OVC026 41 38     92% 35   30.17        
Jan 16 05:30 S 7 10 Cloudy OVC026 41 38     92% 36   30.16        
Jan 16 05:15 S 9 10 Cloudy OVC026 41 38     91% 35   30.17        
Jan 16 04:55 S 7 10 Cloudy OVC026 40 38     94% 35   30.16        
Jan 16 04:35 S 6 10 Cloudy OVC026 40 38     94% 36   30.17        
Jan 16 04:15 S 5 10 Cloudy OVC026 40 38     93% 37   30.17        
Jan 16 03:55 S 7 10 Cloudy OVC026 40 38     94% 35   30.17        
Jan 16 03:35 S 7 10 Cloudy OVC026 39 38     94% 34   30.17        
Jan 16 03:15 S 8 10 Cloudy OVC026 40 38     93% 34   30.17        
Jan 16 02:55 S 9 10 Cloudy OVC024 39 38     93% 33   30.18        
Jan 16 02:30 S 9 10 Cloudy OVC024 39 37     93% 32   30.18        
Jan 16 02:10 SSW 7 10 Cloudy OVC024 39 37     93% 34   30.18        
Jan 16 01:55 S 7 10 Cloudy OVC024 38 36     94% 33   30.18        
Jan 16 01:35 S 7 10 Cloudy OVC024 37 36     94% 32   30.18        
Jan 16 01:10 S 8 10 Cloudy OVC024 36 35     95% 30   30.18        
Jan 16 00:55 S 9 10 Mostly Cloudy BKN024 36 35     95% 29   30.18        
Jan 16 00:35 S 10 10 Partly Cloudy SCT024 34 33     96% 26   30.18        
Jan 16 00:15 S 8 10 Clear CLR 34 33     96% 27   30.19        
Jan 15 23:55 S 8 10 Clear CLR 35 33     96% 28   30.2        
Jan 15 23:35 S 8 10 Clear CLR 35 34     95% 29   30.2        
Jan 15 23:10 S 8 10 Clear CLR 35 34     95% 29   30.2        
Jan 15 22:55 S 8 10 Clear CLR 36 34     94% 29   30.19        
Jan 15 22:35 S 9 10 Clear CLR 36 35     94% 29   30.19        
Jan 15 22:10 S 8 10 Clear CLR 36 34     94% 29   30.18        
Jan 15 21:55 S 7 10 Clear CLR 36 35     93% 31   30.19        
Jan 15 21:35 S 7 10 Clear CLR 36 35     93% 31   30.18        
Jan 15 21:15 SSW 7 10 Clear CLR 38 35     92% 32   30.18        
Jan 15 20:55 S 8 10 Clear CLR 39 36     89% 33   30.18        
Jan 15 20:30 S 11 10 Clear CLR 40 37     89% 33   30.17        
Jan 15 20:10 S 10 10 Clear CLR 39 36     89% 32   30.17        
Jan 15 19:55 S 9 10 Clear CLR 40 36     89% 33   30.17        
Jan 15 19:30 S 10 10 Clear CLR 40 37     87% 34   30.17        
Jan 15 19:10 S 10 10 Clear CLR 40 37     89% 33   30.17        
Jan 15 18:50 S 9 10 Clear CLR 40 36     88% 34   30.17        
Jan 15 18:35 S 10 10 Clear CLR 41 37     86% 35   30.16        
Jan 15 18:15 S 8 10 Clear CLR 42 38     85% 37   30.16        
Jan 15 17:55 S 8 10 Clear CLR 43 37     81% 38   30.15        
Jan 15 17:35 SSE 8 10 Clear CLR 43 38     82% 38   30.15        
Jan 15 17:10 S 7 10 Clear CLR 46 40     81% 42   30.15        
Jan 15 16:50 SSW 7 10 Clear CLR 49 42     77% 46   30.15        
Jan 15 16:30 SSW 9 10 Clear CLR 50 42     74% 46   30.15        
Jan 15 16:15 SW 12 10 Clear CLR 50 41     71%     30.16        
Jan 15 15:55 SSW 14 10 Clear CLR 50 42     72%     30.16        
Jan 15 15:35 SSW 13 10 Clear CLR 50 41     72%     30.16        
Jan 15 15:15 SSW 12 10 Clear CLR 50 41     73% 45   30.17        
Jan 15 14:55 SSW 13 10 Clear CLR 49 41     74% 43   30.17        
Jan 15 14:35 S 10 10 Clear CLR 48 41     77% 43   30.17        
Jan 15 14:15 SSW 10 10 Clear CLR 47 40     78% 42   30.17        
Jan 15 13:55 SSW 12 10 Clear CLR 46 40     79% 40   30.17        
Jan 15 13:35 S 11 10 Partly Cloudy SCT013 45 39     81% 39   30.18        
Jan 15 13:15 S 13 10 Partly Cloudy SCT011 44 39     83% 37   30.19        
Jan 15 12:55 S 13 10 Partly Cloudy SCT011 42 37     83% 35   30.21        
Jan 15 12:35 S 11 10 Partly Cloudy SCT011 41 36     84% 34   30.22        
Jan 15 12:15 S 12 10 Mostly Cloudy BKN011 40 36     84% 33   30.24        
Jan 15 11:55 SSW 9 10 Partly Cloudy SCT009 39 35     86% 33   30.25        
Jan 15 11:35 SSW 10 10 Partly Cloudy SCT009 38 34     86% 31   30.27        
Jan 15 11:15 SSW 13 10 Mostly Cloudy BKN009 36 33     88% 27   30.28        
Jan 15 10:55 S 10 10 Mostly Cloudy BKN009 36 33     89% 28   30.29        
Jan 15 10:35 S 10 10 Clear   35 32     89% 27   30.3        
Jan 15 10:15 S 9 10 Clear   34 32     91% 27   30.3        
Jan 15 09:50 S 8 10 Clear   32 31     94% 25   30.3        
Jan 15 09:35 S 7 10 Cloudy OVC005 31 30     94% 24   30.29        
Jan 15 09:15 S 7 7 Cloudy OVC005 30 29     96% 24   30.29        
Jan 15 08:55 S 7 7 Cloudy OVC005 30 29     96% 23   30.29        
Jan 15 08:35 S 8 7 Cloudy OVC005 29 28     96% 22   30.29        
Jan 15 08:15 S 8 7 Cloudy OVC005 29 28     96% 22   30.29        
Jan 15 07:55 S 8 7 Cloudy OVC005 29 28     96% 21   30.28        
Jan 15 07:35 S 9 7 Mostly Cloudy BKN005 28 27     96% 20   30.28        
Jan 15 07:15 S 9 10 Partly Cloudy SCT005 29 27     96% 20   30.28        
Jan 15 06:55 S 10 10 Clear CLR 29 28     96% 19   30.28        
Jan 15 06:35 S 10 10 Partly Cloudy SCT005 27 26     97% 18   30.27        
Jan 15 06:10 SSE 7 7 Clear CLR 26 26     97% 19   30.28        
Jan 15 05:55 SSE 6 7 Clear CLR 27 26     97% 20   30.28        
Jan 15 05:30 SSE 7 7 Clear CLR 27 26     97% 19   30.28        
Jan 15 05:15 S 9 7 Clear CLR 27 26     96% 18   30.28        
Jan 15 04:50 S 7 10 Partly Cloudy SCT003 27 26     96% 19   30.29        
Jan 15 04:35 S 9 7 Mostly Cloudy BKN003 27 26     97% 18   30.29        
Jan 15 04:15 S 7 7 Cloudy OVC003 27 26     96% 20   30.31        
Jan 15 03:55 SSE 7 10 Mostly Cloudy BKN003 27 26     96% 19   30.31        
Jan 15 03:35 SSE 7 10 Partly Cloudy SCT003 27 26     96% 19   30.31        
Jan 15 03:10 SE 5 7 Partly Cloudy SCT003 27 26     96% 22   30.32        
Jan 15 02:55 SSE 5 7 Clear CLR 27 27     97% 22   30.32        
Jan 15 02:35 SSE 6 7 Clear CLR 27 26     97% 20   30.31        
Jan 15 02:15 SSE 6 7 Clear CLR 27 26     96% 20   30.31        
Jan 15 01:55 SSE 7 7 Clear CLR 27 26     96% 19   30.32        
Jan 15 01:35 SE 5 10 Clear CLR 28 27     93% 23   30.32        
Jan 15 01:15 ENE 3 10 Clear CLR 28 27     96% 24   30.33        
Jan 15 00:55 SE 3 10 Clear CLR 29 28     96% 25   30.33        
Jan 15 00:30 S 5 10 Clear CLR 29 28     96% 23   30.34        
Jan 15 00:10 S 6 10 Clear CLR 29 28     96% 23   30.34        
Jan 14 23:50 S 5 10 Clear CLR 29 28     95% 24   30.35        
Jan 14 23:35 S 5 10 Clear CLR 29 28     94% 24   30.36        
Jan 14 23:15 SSE 5 10 Clear CLR 29 28     94% 25   30.36        
Jan 14 22:55 SSE 5 10 Clear CLR 31 29     94% 26   30.36        
Jan 14 22:30 SSE 6 10 Clear CLR 31 29     93% 25   30.36        
Jan 14 22:15 SSE 6 10 Partly Cloudy SCT011 31 29     92% 25   30.35        
Jan 14 21:50 S 6 10 Cloudy OVC011 32 30     91% 27   30.34        
Jan 14 21:35 SSE 3 10 Cloudy OVC009 32 30     92% 29   30.34        
Jan 14 21:15 S 6 10 Cloudy OVC009 33 30     90% 27   30.35        
Jan 14 20:55 SSW 7 10 Cloudy OVC009 33 30     89% 26   30.35        
Jan 14 20:35 SSW 8 10 Cloudy OVC009 33 30     90% 26   30.36        
Jan 14 20:15 SSW 7 10 Cloudy OVC009 33 30     90% 26   30.36        
Jan 14 19:55 S 7 10 Cloudy OVC009 33 30     90% 27   30.36        
Jan 14 19:35 SSW 5 10 Cloudy OVC011 33 31     91% 28   30.36        
Jan 14 19:15 SSW 7 10 Cloudy OVC011 33 30     89% 27   30.36        
Jan 14 18:50 SW 6 10 Cloudy OVC011 33 30     89% 27   30.36        
Jan 14 18:35 SSW 7 10 Cloudy OVC011 33 30     90% 26   30.36        
Jan 14 18:15 SW 8 10 Cloudy OVC011 33 30     90% 26   30.36        
Jan 14 17:55 SW 8 10 Cloudy OVC011 33 30     89% 26   30.36        
Jan 14 17:35 S 7 10 Cloudy OVC011 33 30     89% 26   30.36        
Jan 14 17:15 SSW 7 10 Cloudy OVC011 33 30     89% 26   30.36        
Jan 14 16:55 SW 7 10 Cloudy OVC011 33 30     89% 26   30.36        
Jan 14 16:30 SW 8 10 Cloudy OVC011 33 29     88% 25   30.36        
Jan 14 16:10 SW 8 10 Cloudy OVC011 33 29     88% 26   30.36        
Jan 14 15:55 SW 8 10 Cloudy OVC009 33 29     88% 26   30.37        
Jan 14 15:35 SW 9 10 Cloudy OVC009 33 29     88% 25   30.37        
Jan 14 15:15 SW 9 10 Cloudy OVC009 33 29     88% 25   30.38        
Jan 14 14:55 SW 7 10 Cloudy OVC009 33 29     88% 26   30.38        
Jan 14 14:35 WSW 8 10 Cloudy OVC009 32 29     89% 25   30.38        
Jan 14 14:15 SW 9 10 Cloudy OVC009 32 29     90% 24   30.39        
Jan 14 13:55 SW 6 10 Cloudy OVC009 32 29     88% 27   30.39        
Jan 14 13:35 SW 8 10 Cloudy OVC009 32 29     89% 25   30.4        
Jan 14 13:15 SW 6 10 Cloudy OVC009 32 29     89% 26   30.4        
Jan 14 12:55 SW 6 10 Cloudy OVC009 31 29     90% 26   30.41        
Jan 14 12:35 WSW 5 10 Cloudy OVC009 31 28     88% 27   30.42        
Jan 14 12:15 SSW 7 10 Cloudy OVC007 31 28     90% 24   30.43        
Jan 14 11:55 SSW 7 10 Cloudy OVC007 31 29     90% 25   30.45        
Jan 14 11:30 SW 8 10 Cloudy OVC007 31 28     90% 23   30.46        
Jan 14 11:10 SSW 8 10 Cloudy OVC007 30 28     92% 23   30.48        
Jan 14 10:55 WSW 6 10 Cloudy OVC007 30 28     92% 24   30.48        
Jan 14 10:35 WSW 8 10 Cloudy OVC007 30 28     92% 23   30.48        
Jan 14 10:10 SW 9 10 Cloudy OVC007 30 28     92% 21   30.48        
Jan 14 09:55 WSW 9 10 Cloudy OVC005 30 28     92% 21   30.48        
Jan 14 09:35 SSW 8 10 Cloudy OVC005 29 28     94% 22   30.47        
Jan 14 09:15 SW 7 10 Cloudy OVC005 29 27     93% 22   30.46        
Jan 14 08:55 WSW 6 10 Cloudy OVC005 29 27     93% 23   30.46        
Jan 14 08:35 WSW 7 10 Cloudy OVC005 29 27     93% 22   30.46        
Jan 14 08:15 SW 7 10 Cloudy OVC005 29 27     94% 22   30.45        
Jan 14 07:55 SW 8 10 Cloudy OVC005 29 27     94% 21   30.46        
Jan 14 07:35 W 7 10 Cloudy OVC005 29 27     94% 22   30.46        
Jan 14 07:15 W 5 10 Cloudy OVC005 29 27     93% 24   30.47        
Jan 14 06:50 W 6 10 Cloudy OVC005 29 27     94% 23   30.46        
Jan 14 06:35 SW 8 10 Cloudy OVC005 29 27     93% 21   30.46        
Jan 14 06:15 WNW 7 10 Cloudy OVC005 29 27     94% 22   30.46        
Jan 14 05:55 WNW 5 10 Cloudy OVC005 29 27     93% 24   30.45        
Jan 14 05:30 W 5 10 Cloudy OVC005 29 27     93% 24   30.46        
Jan 14 05:15 WSW 8 10 Cloudy OVC005 29 27     93% 21   30.46        
Jan 14 04:55 W 5 10 Cloudy OVC005 29 27     92% 24   30.46        
Jan 14 04:35 W 6 10 Cloudy OVC005 29 27     93% 23   30.46        
Jan 14 04:15 WSW 5 10 Cloudy OVC005 29 27     93% 24   30.47        
Jan 14 03:55 WSW 3 10 Cloudy OVC005 29 27     93% 25   30.48        
Jan 14 03:35 WSW 5 10 Cloudy OVC007 29 27     93% 24   30.48        
Jan 14 03:15 W 3 10 Cloudy OVC007 29 27     93% 26   30.49        
Jan 14 02:55 NW 3 10 Cloudy OVC007 29 27     92% 26   30.49        
Jan 14 02:30 N 3 10 Cloudy OVC007 29 27     92% 26   30.48        
Jan 14 02:10 WNW 3 10 Cloudy OVC007 29 27     92% 26   30.47        
Jan 14 01:55 N 7 10 Cloudy OVC007 29 27     92% 22   30.47        
Jan 14 01:30 NW 6 10 Cloudy OVC007 29 27     92% 23   30.46        
Jan 14 01:15 NNW 7 10 Cloudy OVC007 29 27     92% 23   30.47        
Jan 14 00:55 W 6 10 Cloudy OVC007 29 27     92% 23   30.47        
Jan 14 00:35 WNW 8 10 Cloudy OVC007 30 27     92% 22   30.48        
Jan 14 00:15 WNW 5 10 Cloudy OVC009 30 27     91% 25   30.48        
Jan 13 23:55 NNW 7 10 Cloudy OVC009 30 27     91% 23   30.49        
Jan 13 23:35 NW 5 10 Cloudy OVC009 30 28     91% 25   30.49        
Jan 13 23:15 WNW 5 10 Cloudy OVC009 30 27     90% 25   30.49        
Jan 13 22:55 NW 5 10 Cloudy OVC009 30 27     90% 25   30.49        
Jan 13 22:35 NW 7 10 Cloudy OVC009 30 27     90% 23   30.49        
Jan 13 22:15 NNW 5 10 Cloudy OVC009 30 27     90% 25   30.49        
Jan 13 21:55 E 3 10 Cloudy OVC009 30 27     90% 26   30.49        
Jan 13 21:30 N 8 10 Cloudy OVC009 30 28     90% 23   30.48        
Jan 13 21:10 N 9 10 Cloudy OVC009 30 27     90% 22   30.48        
Jan 13 20:50 N 7 10 Cloudy OVC009 30 27     90% 23   30.47        
Jan 13 20:35 NNE 8 10 Cloudy OVC009 30 27     90% 22   30.47        
Jan 13 20:10 NNE 9 10 Cloudy OVC009 30 28     91% 22   30.48        
Jan 13 19:50 NNE 8 10 Cloudy OVC009 30 28     90% 23   30.48        
Jan 13 19:35 NNE 8 10 Cloudy OVC009 30 28     90% 23   30.48        
Jan 13 19:15 N 8 10 Cloudy OVC009 31 28     89% 23   30.48        
Jan 13 18:55 N 8 10 Cloudy OVC009 31 28     89% 23   30.48        
Jan 13 18:35 NNW 8 10 Cloudy OVC011 31 28     90% 23   30.48        
Jan 13 18:15 N 7 10 Cloudy OVC011 31 28     88% 24   30.46        
Jan 13 17:55 NNE 8 10 Cloudy OVC011 31 28     88% 24   30.46        
Jan 13 17:35 NW 10 10 Cloudy OVC011 31 28     86% 23   30.46        
Jan 13 17:15 N 9 10 Cloudy OVC011 31 28     86% 23   30.45        
Jan 13 16:55 N 9 10 Cloudy OVC011 32 29     88% 24   30.44        
Jan 13 16:35 NNW 10 10 Cloudy OVC013 32 28     87% 23   30.44        
Jan 13 16:15 N 13 10 Cloudy OVC013 32 28     86% 23   30.44        
Jan 13 15:55 N 9 10 Cloudy OVC013 32 29     86% 24   30.44        
Jan 13 15:35 NNW 10 10 Cloudy OVC013 32 29     87% 24   30.44        
Jan 13 15:15 NNW 9 10 Cloudy OVC015 33 28     84% 25   30.43        
Jan 13 14:55 NNW 12 10 Clear   33 29     85% 24   30.43        
Jan 13 14:30 N 9 10 Clear   33 29     85% 25   30.43        
Jan 13 14:15 N 10 10 Clear   33 29     85% 24   30.43        
Jan 13 13:55 N 7 10 Clear   33 28     85% 26   30.43        
Jan 13 13:35 N 10 10 Cloudy BKN011 OVC017 32 29     87% 24   30.43        
Jan 13 13:10 N 12 10 Cloudy OVC011 32 29     88% 23   30.43        
May 15 13:35 WSW 10 10 Mostly Cloudy BKN034 BKN039 BKN060 80 69     69%   83 29.98        
May 15 04:15 SE 14 10 Clear CLR 63 61     93%     29.87        
May 14 22:35   5 Thunderstorms and Haze BKN050 BKN060 BKN120 74 62     66%   75 29.92        
May 14 11:55 SSW 21 10 Clear and Windy CLR 85 70     61%   90 29.92        
May 14 11:15 S 24 10 Clear and Windy CLR 84 70     63%   88 29.92        
May 14 10:55 SSW 21 10 Clear and Windy CLR 81 69     66%   84 29.93        
May 14 08:55 S 13 10 Clear CLR 74 67     80%   75 29.94        
May 14 06:35 S 9 10 Clear CLR 71 66     84%   71 29.91        
Notice The following observation data may not be complete
May 14 00:55   10 Clear CLR          %              
May 13 19:55 S 14 10 Clear CLR 81 63     55%   82 29.89        
May 13 08:55 S 16 10 Clear CLR 76 69     78%   77 29.98        
May 13 06:35 S 7 10 Clear CLR 67 65     93%     29.96        
May 13 02:15 SSE 6 10 Clear CLR 67 64     90%     29.95        
May 13 00:35 S 3 10 Clear CLR 69 64     86%     29.97        
May 12 21:15 S 9 10 Mostly Cloudy BKN041 77 66     70%   78 29.91        
May 12 16:15 S 21 10 Clear and Windy   83 69     62%   87 29.88        
May 12 04:35 SSE 10 10 Clear CLR 69 62     78%     29.83        
May 12 01:55 S 14 10 Clear CLR 73 63     72%   73 29.8        
May 11 14:15 S 22 10 Clear and Windy CLR 83 64     53%   85 29.77        
May 11 09:35 SSW 23 10 Clear and Windy CLR 74 62     66%   74 29.8        
Jun 12 08:15 S 17 10 Clear CLR 73 68     83%   74 29.92        
Jun 12 07:12 SSE 10 10 Clear CLR 72 64     78%   72 29.91        
Jun 12 05:55 S 10 10 Clear CLR 70 63     78%     29.89        
Jun 12 05:12 S 12 10 Clear CLR 72 63     73%   72 29.88        
Jun 12 02:12 SSE 10 10 Clear CLR 72 64     78%   72 29.88        
Jun 12 01:52 SSE 10 10 Clear CLR 72 64     78%   72 29.89        
Notice The following observation data may not be complete
Jun 12 00:15   10 Clear CLR          %              
Notice The following observation data may not be complete
Jun 11 23:15   10 Clear CLR          %              
Notice The following observation data may not be complete
Jun 11 22:47   10 Clear CLR          %              
Notice The following observation data may not be complete
Jun 11 21:42   10 Clear CLR          %              
Jun 11 21:07 SSE 14 10 Clear CLR 79 64     61%   79 29.84        
Jun 11 19:27 SSE 15 10 Clear CLR 82 66     58%   85 29.83        
Notice The following observation data may not be complete
Jun 11 18:42   10 Clear CLR          %              
Jun 11 18:12 SSE 21 10 Clear and Windy CLR 84 66     55%   87 29.83        
Jun 11 17:27 SSE 20 10 Clear and Windy CLR 86 66     52%   88 29.84        
Jun 11 17:12 SSE 26 10 Clear and Breezy CLR 86 66     52%   88 29.84        
Jun 11 16:32 S 24 10 Clear and Windy CLR 86 66     52%   88 29.84        
Jun 11 15:17 SSE 24 10 Partly Cloudy and Windy SCT043 88 66     49%   90 29.86        
Notice The following observation data may not be complete
Jun 11 15:15   10 Partly Cloudy SCT043          %              
Jun 11 15:12 SSE 26 10 Clear and Breezy   88 66     49%   90 29.86        
Jun 11 14:52 S 22 10 Clear and Windy CLR 88 66     49%   90 29.86        
Jun 11 12:42 S 20 10 Clear and Windy CLR 86 64     49%   88 29.87        
Notice The following observation data may not be complete
Jun 11 11:47   10 Clear CLR          %              
Jun 11 11:32 S 23 10 Clear and Windy CLR 84 64     52%   86 29.87        
Jun 11 10:42 S 20 10 Clear and Windy CLR 82 64     55%   84 29.86        
Jun 11 10:07 S 21 10 Clear and Windy CLR 81 64     58%   82 29.87        
Jun 11 08:02 S 18 10 Clear CLR 73 63     69%   74 29.87        
Jun 11 07:12 SSE 17 10 Clear CLR 72 63     73%   72 29.87        
Jun 11 07:07 SSE 16 10 Clear CLR 72 63     73%   72 29.86        
Jun 11 06:52 SSE 16 10 Clear CLR 72 63     73%   72 29.86        
Jun 11 05:12 SSE 13 10 Clear CLR 72 63     73%   72 29.85        
Jun 11 04:32 S 14 10 Clear CLR 72 63     73%   72 29.85        
Jun 11 02:42 S 16 10 Clear   73 63     69%   74 29.84        
Jun 11 02:32 S 15 10 Clear CLR 73 63     69%   74 29.85        
Jun 11 01:15 S 20 10 Clear and Windy CLR 73 63     69%   74 29.84        
Jun 11 00:55 S 16 10 Clear CLR 73 63     69%   74 29.85        
Jun 11 00:15 S 16 10 Clear CLR 73 63     69%   74 29.85        
Jun 10 22:22 SSE 14 10 Clear CLR 77 64     65%   77 29.83        
Jun 10 22:07 S 17 10 Clear   77 64     65%   77 29.82        
Jun 10 21:12 SSE 14 10 Clear CLR 79 64     61%   79 29.8        
Jun 10 18:35 S 17 10 Clear CLR 82 64     55%   84 29.77        
Jun 10 18:27 SSE 22 10 Partly Cloudy and Windy SCT040 84 66     55%   87 29.77        
Jun 10 18:17 SSE 24 10 Clear and Windy   84 66     55%   87 29.77        
Jun 10 17:02 SSE 23 10 Partly Cloudy and Windy SCT040 84 66     55%   87 29.77        
Jun 10 13:22 SSE 23 10 Mostly Cloudy and Windy BKN036 82 64     55%   84 29.83        
Jun 10 13:12 S 17 10 Mostly Cloudy BKN036 82 64     55%   84 29.84        
Jun 10 11:07 S 22 10 Clear and Windy CLR 81 64     58%   82 29.84        
Jun 10 09:42 S 23 10 Clear and Windy CLR 75 63     65%   75 29.86        
Notice The following observation data may not be complete
Jun 10 09:15   10 Clear CLR          %              
Notice The following observation data may not be complete
Jun 10 07:42   10 Clear CLR          %              
Jun 10 06:55 S 13 10 Clear CLR 68 61     78%     29.85        
Jun 10 02:57 SSE 7 10 Clear CLR 64 61     88%     29.82        
Jun 10 01:42 SSE 7 10 Clear CLR 66 59     78%     29.84        
Jun 10 01:32 SSE 7 10 Clear CLR 66 59     78%     29.84        
Jun 10 01:17 SSE 8 10 Clear CLR 66 59     78%     29.84        
Notice The following observation data may not be complete
Jun 10 00:47   10 Clear CLR          %              
Notice The following observation data may not be complete
Jun 09 21:35 SSE 8 10 Clear CLR   59      %     29.84        
Notice The following observation data may not be complete
Jun 09 20:47   10 Clear CLR          %              
Jun 09 20:12 SSE 9 10 Clear CLR 75 61     61%   75 29.84        
Jun 09 19:07 SSE 12 10 Clear CLR 81 57     45%   81 29.84        
Notice The following observation data may not be complete
Jun 09 18:47   10 Clear CLR          %              
Jun 09 17:26 SSE 14 10 Clear CLR 82 57     42%   82 29.85        
Jun 09 16:52 SSE 15 10 Clear CLR 82 57     42%   82 29.86        
Jun 09 16:22 SSE 14 10 Partly Cloudy SCT050 82 57     42%   82 29.87        
Notice The following observation data may not be complete
Jun 09 16:15   10 Partly Cloudy SCT050          %              
Jun 09 15:15 SSE 14 10 Clear CLR 82 57     42%   82 29.88        
Jun 09 15:02 SSE 16 10 Clear CLR 82 57     42%   82 29.88        
Jun 09 14:52 S 13 10 Partly Cloudy SCT050 82 57     42%   82 29.88        
Notice The following observation data may not be complete
Jun 09 13:47   10 Partly Cloudy SCT050          %              
Notice The following observation data may not be complete
Jun 09 08:55   10 Clear CLR          %              
Jun 09 07:15 Calm 10 Clear CLR 61 57     88%     29.93        
Notice The following observation data may not be complete
Jun 09 04:57   10 Clear CLR          %              
Jun 09 02:07 Calm 10 Clear CLR 61 55     82%     29.9        
Jun 09 01:07 Calm 10 Clear CLR 63 57     83%     29.92        
Jun 08 23:42 Calm 10 Clear CLR 64 57     77%     29.93        
Notice The following observation data may not be complete
Jun 08 22:42   10 Clear CLR          %              
Jun 08 19:32 ESE 6 10 Clear   79 52     39%   78 29.91        
Jun 08 19:17 ESE 6 10 Clear CLR 79 50     37%   78 29.92        
Jun 08 19:02 SSE 3 10 Clear CLR 79 48     34%   78 29.92        
Jun 08 18:52 SSE 6 10 Clear CLR 81 50     34%   80 29.92        
Jun 08 15:02 SSE 5 10 Clear CLR 81 45     28%   80 29.99        
Jun 08 14:17 SSW 6 10 Clear CLR 81 46     30%   80 30        
Jun 08 12:27 S 6 10 Clear CLR 77 46     34%   76 30.04        
Jun 08 11:52 SSE 6 10 Clear CLR 77 46     34%   76 30.05        
Notice The following observation data may not be complete
Jun 08 10:57   10 Clear CLR          %              
Jun 08 08:55 ENE 3 10 Clear CLR 68 57     68%     30.07        
Jun 08 08:42 Calm 10 Clear CLR 68 59     73%     30.07        
Jun 08 08:27 Calm 10 Clear   66 57     73%     30.07        
Jun 08 07:55 Calm 10 Clear CLR 63 55     77%     30.07        
Jun 08 06:57 Calm 10 Clear CLR 55 54     94%     30.06        
Jun 07 21:27 ENE 3 10 Clear CLR 70 54     56%     30.03        
Jun 07 21:17 ENE 3 10 Clear CLR 72 54     53%   71 30.03        
Jun 07 21:12 ENE 3 10 Clear CLR 72 54     53%   71 30.03        
Jun 07 18:07 ENE 9 10 Clear CLR 79 48     34%   78 30.03        
Jun 07 17:07 E 7 10 Clear CLR 81 46     30%   80 30.04        
Notice The following observation data may not be complete
Jun 07 15:42   10 Clear CLR          %              
Notice The following observation data may not be complete
Jun 07 14:42   10 Clear CLR          %              
Jun 07 13:37 ENE 5 10 Clear CLR 79 45     30%   78 30.07        
Jun 07 13:35 E 5 10 Clear CLR 77 43     30%   76 30.07        
Jun 07 12:02 NE 9 10 Clear CLR 77 46     34%   76 30.09        
Jun 07 11:22 NE 8 10 Clear CLR 77 46     34%   76 30.09        
Jun 07 10:47 NNE 10 10 Clear CLR 75 46     36%   74 30.09        
Jun 07 09:35 ENE 8 10 Clear CLR 72 50     46%   71 30.09        
Jun 07 09:02 ENE 8 10 Clear CLR 70 52     53%     30.08        
Jun 06 15:15 NNE 11 10 Clear CLR 84 55     37%   83 29.94        
Jun 06 14:12 NNE 16 10 Clear CLR 84 57     40%   83 29.95        
Jun 06 13:57 N 13 10 Clear CLR 84 55     37%   83 29.96        
Notice The following observation data may not be complete
Jun 06 12:42   10 Clear CLR          %              
Jun 06 12:37 NNE 13 10 Clear CLR 84 57     40%   83 29.96        
Jun 06 11:55 NNE 9 10 Clear CLR 81 59     48%   81 29.97        
Jun 06 11:32 NE 9 10 Clear CLR 81 63     54%   82 29.96        
Jun 06 09:02 NNE 7 10 Clear CLR 73 61     65%   73 29.95        
Jun 06 08:02 N 6 10 Clear CLR 70 61     73%     29.94        
Jun 06 07:42 N 3 10 Clear CLR 70 61     73%     29.93        
Jun 06 07:35 N 5 10 Clear CLR 68 61     78%     29.94        
Jun 06 06:55 N 5 10 Clear CLR 64 61     88%     29.92        
Jun 06 05:55 N 6 10 Clear CLR 63 61     94%     29.91        
Notice The following observation data may not be complete
Jun 06 04:52   10 Clear CLR          %              
Notice The following observation data may not be complete
Jun 06 02:57   10 Clear CLR          %              
Jun 06 02:55 Calm 10 Clear CLR 68 63     83%     29.89        
Jun 06 00:55 Calm 10 Clear CLR 68 64     88%     29.88        
Jun 05 22:42 W 3 10 Clear CLR 73 66     78%   74 29.87        
Jun 05 22:37 Calm 10 Clear   73 66     78%   74 29.87        
Jun 05 21:55 Calm 10 Clear   73 66     78%   74 29.86        
Jun 05 19:37 E 6 10 Clear CLR 84 63     48%   85 29.83        
Jun 05 18:22 ENE 12 10 Clear CLR 86 61     43%   86 29.81        
Jun 05 17:22 NE 9 10 Clear CLR 88 61     40%   88 29.8        
Notice The following observation data may not be complete
Jun 05 14:15   10 Clear CLR          %